Date String (YYYY-MM-DD hh:mm:ss) UTC,Instrument flags,Ambient pressure (hPa),Sample flow (lpm),Bypass flow (lpm),Sample temperature (°C),Ambient temperature (°C),ASC tube jacket temperature (°C),LED temperature (°C),Box temperature (°C),Sample RH (%),Span deviation,Mass concentration (μg/m³),Mass concentration (μg/m³),Mass concentration (μg/m³)
DateTimeUTC,F1_M11,P_M11,Q1_M11,Q2_M11,T1_M11,T2_M11,T3_M11,T4_M11,T5_M11,U1_M11,ZSPAN_M11,X0_M11,X2_M11,X1_M11
2022-04-21 05:00:00,,0823.6,4.99,0.00,29.7,28.9,00.0,38.6,31.4,10.0,0000.0,0032.71,0006.67,0002.97
2022-04-21 05:01:00,,0823.6,4.99,0.00,29.7,28.9,00.0,38.6,31.4,10.0,0000.0,0032.60,0006.61,0002.93
2022-04-21 05:02:00,,0823.6,5.00,0.00,29.7,28.9,00.0,38.6,31.4,10.0,0000.0,0033.00,0006.60,0002.90
2022-04-21 05:03:00,,0823.6,5.00,0.00,29.7,28.8,00.0,38.6,31.4,10.0,0000.0,0033.28,0006.62,0002.89
2022-04-21 05:04:00,,0823.6,4.99,0.00,29.7,28.8,00.0,38.6,31.4,09.9,0000.0,0034.51,0006.67,0002.87
2022-04-21 05:05:00,,0823.6,5.02,0.00,29.7,28.8,00.0,38.6,31.4,09.9,0000.0,0034.47,0006.70,0002.84
2022-04-21 05:06:00,,0823.7,4.97,0.00,29.7,28.8,00.0,38.6,31.4,09.9,0000.0,0035.53,0006.67,0002.81
2022-04-21 05:07:00,,0823.7,5.01,0.00,29.7,28.8,00.0,38.6,31.4,09.9,0000.0,0039.53,0006.66,0002.80
2022-04-21 05:08:00,,0823.7,5.01,0.00,29.6,28.8,00.0,38.6,31.3,09.9,0000.0,0038.91,0006.64,0002.78
2022-04-21 05:09:00,,0823.7,4.99,0.00,29.6,28.8,00.0,38.6,31.3,09.8,0000.0,0038.23,0006.55,0002.77
2022-04-21 05:10:00,,0823.6,5.00,0.00,29.6,28.8,00.0,38.6,31.3,09.8,0000.0,0038.40,0006.58,0002.75
2022-04-21 05:11:00,,0823.6,5.01,0.00,29.6,28.8,00.0,38.6,31.3,09.8,0000.0,0037.66,0006.53,0002.74
2022-04-21 05:12:00,,0823.6,4.99,0.00,29.6,28.8,00.0,38.6,31.3,09.8,0000.0,0036.08,0006.55,0002.76
2022-04-21 05:13:00,,0823.6,5.01,0.00,29.6,28.8,00.0,38.6,31.3,09.8,0000.0,0035.13,0006.57,0002.76
2022-04-21 05:14:00,,0823.6,4.99,0.00,29.6,28.7,00.0,38.6,31.3,09.8,0000.0,0034.85,0006.59,0002.74
2022-04-21 05:15:00,,0823.6,4.99,0.00,29.6,28.7,00.0,38.6,31.3,09.8,0000.0,0035.07,0006.59,0002.71
2022-04-21 05:16:00,,0823.6,5.00,0.00,29.6,28.7,00.0,38.6,31.3,09.8,0000.0,0035.21,0006.62,0002.68
2022-04-21 05:17:00,,0823.6,5.01,0.00,29.6,28.7,00.0,38.6,31.2,09.8,0000.0,0035.78,0006.68,0002.67
2022-04-21 05:18:00,,0823.7,4.99,0.00,29.6,28.7,00.0,38.6,31.2,09.7,0000.0,0032.68,0006.65,0002.64
2022-04-21 05:19:00,,0823.7,5.01,0.00,29.6,28.7,00.0,38.6,31.2,09.7,0000.0,0032.12,0006.64,0002.64
2022-04-21 05:20:00,,0823.7,5.00,0.00,29.5,28.7,00.0,38.5,31.2,09.8,0000.0,0033.47,0006.73,0002.64
2022-04-21 05:21:00,,0823.7,4.98,0.00,29.5,28.7,00.0,38.5,31.2,09.8,0000.0,0033.68,0006.73,0002.63
2022-04-21 05:22:00,,0823.7,5.01,0.00,29.5,28.7,00.0,38.5,31.2,09.7,0000.0,0033.90,0006.70,0002.63
2022-04-21 05:23:00,,0823.7,5.01,0.00,29.5,28.6,00.0,38.5,31.2,09.7,0000.0,0034.52,0006.62,0002.61
2022-04-21 05:24:00,,0823.7,4.99,0.00,29.5,28.6,00.0,38.5,31.2,09.8,0000.0,0033.93,0006.56,0002.57
2022-04-21 05:25:00,,0823.7,5.01,0.00,29.5,28.6,00.0,38.5,31.2,09.7,0000.0,0033.11,0006.47,0002.55
2022-04-21 05:26:00,,0823.6,5.00,0.00,29.5,28.6,00.0,38.5,31.1,09.7,0000.0,0031.83,0006.44,0002.55
2022-04-21 05:27:00,,0823.7,4.98,0.00,29.5,28.6,00.0,38.5,31.1,09.7,0000.0,0031.10,0006.42,0002.55
2022-04-21 05:28:00,,0823.7,5.00,0.00,29.4,28.6,00.0,38.5,31.1,09.7,0000.0,0031.53,0006.34,0002.53
2022-04-21 05:29:00,,0823.7,5.02,0.00,29.4,28.5,00.0,38.5,31.2,09.7,0000.0,0031.00,0006.30,0002.52
2022-04-21 05:30:00,,0823.7,4.99,0.00,29.4,28.5,00.0,38.5,31.1,09.7,0000.0,0030.66,0006.35,0002.51
2022-04-21 05:31:00,,0823.8,4.99,0.00,29.4,28.6,00.0,38.5,31.1,09.7,0000.0,0028.95,0006.25,0002.49
2022-04-21 05:32:00,,0823.8,5.01,0.00,29.4,28.6,00.0,38.5,31.2,09.7,0000.0,0028.56,0006.21,0002.47
2022-04-21 05:33:00,,0823.8,4.99,0.00,29.4,28.6,00.0,38.4,31.2,09.7,0000.0,0028.54,0006.12,0002.44
2022-04-21 05:34:00,,0823.8,4.99,0.00,29.4,28.6,00.0,38.4,31.2,09.7,0000.0,0028.48,0006.14,0002.41
2022-04-21 05:35:00,,0823.8,5.02,0.00,29.4,28.6,00.0,38.4,31.1,09.7,0000.0,0029.18,0006.17,0002.39
2022-04-21 05:36:00,,0823.8,4.99,0.00,29.4,28.6,00.0,38.4,31.1,09.7,0000.0,0028.99,0006.13,0002.40
2022-04-21 05:37:00,,0823.9,5.00,0.00,29.4,28.6,00.0,38.4,31.1,09.7,0000.0,0027.54,0006.11,0002.37
2022-04-21 05:38:00,,0823.9,5.01,0.00,29.4,28.6,00.0,38.4,31.1,09.7,0000.0,0027.14,0006.15,0002.35
2022-04-21 05:39:00,,0823.9,5.01,0.00,29.4,28.5,00.0,38.4,31.1,09.7,0000.0,0026.77,0006.15,0002.35
2022-04-21 05:40:00,,0823.9,4.99,0.00,29.4,28.5,00.0,38.4,31.1,09.7,0000.0,0026.35,0006.13,0002.32
2022-04-21 05:41:00,,0823.9,4.99,0.00,29.4,28.5,00.0,38.4,31.1,09.7,0000.0,0026.60,0006.13,0002.31
2022-04-21 05:42:00,,0823.9,4.99,0.00,29.4,28.5,00.0,38.4,31.0,09.6,0000.0,0026.69,0006.08,0002.29
2022-04-21 05:43:00,,0824.0,5.00,0.00,29.4,28.5,00.0,38.4,31.1,09.7,0000.0,0026.38,0006.05,0002.26
2022-04-21 05:44:00,,0824.0,4.99,0.00,29.4,28.5,00.0,38.4,31.1,09.6,0000.0,0025.39,0006.05,0002.25
2022-04-21 05:45:00,,0824.0,4.99,0.00,29.4,28.5,00.0,38.4,31.1,09.7,0000.0,0023.95,0006.01,0002.23
2022-04-21 05:46:00,,0824.0,5.01,0.00,29.4,28.5,00.0,38.3,31.1,09.7,0000.0,0023.90,0005.98,0002.22
2022-04-21 05:47:00,,0824.0,5.01,0.00,29.4,28.5,00.0,38.3,31.1,09.7,0000.0,0023.34,0005.96,0002.22
2022-04-21 05:48:00,,0824.1,4.99,0.00,29.4,28.5,00.0,38.3,31.1,09.7,0000.0,0024.26,0005.91,0002.22
2022-04-21 05:49:00,,0824.0,5.01,0.00,29.4,28.5,00.0,38.3,31.1,09.7,0000.0,0023.84,0005.83,0002.22
2022-04-21 05:50:00,,0824.1,4.99,0.00,29.4,28.5,00.0,38.3,31.1,09.6,0000.0,0022.73,0005.71,0002.23
2022-04-21 05:51:00,,0824.1,5.01,0.00,29.4,28.5,00.0,38.3,31.1,09.7,0000.0,0022.21,0005.66,0002.24
2022-04-21 05:52:00,,0824.1,4.99,0.00,29.4,28.5,00.0,38.3,31.1,09.6,0000.0,0021.97,0005.59,0002.24
2022-04-21 05:53:00,,0824.1,5.01,0.00,29.4,28.5,00.0,38.3,31.1,09.6,0000.0,0022.39,0005.59,0002.23
2022-04-21 05:54:00,,0824.0,5.01,0.00,29.4,28.5,00.0,38.3,31.1,09.6,0000.0,0022.46,0005.65,0002.24
2022-04-21 05:55:00,,0824.1,4.99,0.00,29.3,28.5,00.0,38.3,31.1,09.6,0000.0,0023.47,0005.70,0002.24
2022-04-21 05:56:00,,0824.0,5.01,0.00,29.3,28.5,00.0,38.3,31.1,09.6,0000.0,0023.65,0005.72,0002.24
2022-04-21 05:57:00,,0823.9,4.99,0.00,29.3,28.5,00.0,38.3,31.1,09.6,0000.0,0023.52,0005.71,0002.24
2022-04-21 05:58:00,,0823.9,5.02,0.00,29.3,28.5,00.0,38.3,31.1,09.6,0000.0,0024.17,0005.72,0002.23
2022-04-21 05:59:00,,0823.9,4.99,0.00,29.3,28.5,00.0,38.3,31.0,09.6,0000.0,0023.73,0005.79,0002.24
